owner,sensor,date,latitude,longitude,vertical_datum,direction_of_sea_water_velocity,sea_water_speed,upward_sea_water_velocity,qcFlag 
TABS,ioos:station:wmo:42050:1,2004-02-01T00:00:00Z,28.8425,-94.2433,2.0,250.4847788,19.96700528,-99999.0,'11111222,11111222,99999999' 
TABS,ioos:station:wmo:42050:1,2004-02-01T00:30:00Z,28.8425,-94.2433,2.0,261.2492955,21.03483064,-99999.0,'11111222,11111222,99999999' 
TABS,ioos:station:wmo:42050:1,2004-02-01T01:00:00Z,28.8425,-94.2433,2.0,257.7871235,21.4146165,-99999.0,'11111222,11111222,99999999' 
TABS,ioos:station:wmo:42050:1,2004-02-01T01:30:00Z,28.8425,-94.2433,2.0,256.9851206,19.44959897,-99999.0,'11111222,11111222,99999999' 
TABS,ioos:station:wmo:42050:1,2004-02-01T02:00:00Z,28.8425,-94.2433,2.0,258.7409306,21.92187036,-99999.0,'11111222,11111222,99999999' 
TABS,ioos:station:wmo:42050:1,2004-02-01T02:30:00Z,28.8425,-94.2433,2.0,254.9498243,22.76067881,-99999.0,'11111222,11111222,99999999' 
TABS,ioos:station:wmo:42050:1,2004-02-01T03:00:00Z,28.8425,-94.2433,2.0,260.7551173,24.21450185,-99999.0,'11111222,11111222,99999999' 
TABS,ioos:station:wmo:42050:1,2004-02-01T03:30:00Z,28.8425,-94.2433,2.0,260.3347608,21.8602699,-99999.0,'11111222,11111222,99999999' 
TABS,ioos:station:wmo:42050:1,2004-02-01T04:00:00Z,28.8425,-94.2433,2.0,251.8476304,24.97281122,-99999.0,'11111222,11111222,99999999' 
TABS,ioos:station:wmo:42050:1,2004-02-01T04:30:00Z,28.8425,-94.2433,2.0,263.6488776,24.04756952,-99999.0,'11111222,11111222,99999999' 
TABS,ioos:station:wmo:42050:1,2004-02-01T05:00:00Z,28.8425,-94.2433,2.0,250.1983222,26.65609311,-99999.0,'11111222,11111222,99999999' 
TABS,ioos:station:wmo:42050:1,2004-02-01T05:30:00Z,28.8425,-94.2433,2.0,252.7506294,25.05693118,-99999.0,'11111222,11111222,99999999' 
TABS,ioos:station:wmo:42050:1,2004-02-01T06:00:00Z,28.8425,-94.2433,2.0,247.7765831,28.76684376,-99999.0,'11111222,11111222,99999999' 
TABS,ioos:station:wmo:42050:1,2004-02-01T06:30:00Z,28.8425,-94.2433,2.0,240.6763396,28.99514442,-99999.0,'11111222,11111222,99999999' 
TABS,ioos:station:wmo:42050:1,2004-02-01T07:00:00Z,28.8425,-94.2433,2.0,247.4381753,30.93770838,-99999.0,'11111222,11111222,99999999' 
TABS,ioos:station:wmo:42050:1,2004-02-01T07:30:00Z,28.8425,-94.2433,2.0,237.851934,30.29483289,-99999.0,'11111222,11111222,99999999' 
TABS,ioos:station:wmo:42050:1,2004-02-01T08:00:00Z,28.8425,-94.2433,2.0,238.6125644,33.88904543,-99999.0,'11111222,11111222,99999999' 
TABS,ioos:station:wmo:42050:1,2004-02-01T08:30:00Z,28.8425,-94.2433,2.0,231.16094,33.00748551,-99999.0,'11111222,11111222,99999999' 
TABS,ioos:station:wmo:42050:1,2004-02-01T09:00:00Z,28.8425,-94.2433,2.0,239.8412741,35.7489818,-99999.0,'11111222,11111222,99999999' 
TABS,ioos:station:wmo:42050:1,2004-02-01T09:30:00Z,28.8425,-94.2433,2.0,246.3904708,34.08277277,-99999.0,'11111222,11111222,99999999' 
TABS,ioos:station:wmo:42050:1,2004-02-01T10:00:00Z,28.8425,-94.2433,2.0,244.1169226,33.42264203,-99999.0,'11111222,11111222,99999999' 
TABS,ioos:station:wmo:42050:1,2004-02-01T10:30:00Z,28.8425,-94.2433,2.0,246.506045,32.13373617,-99999.0,'11111222,11111222,99999999' 
TABS,ioos:station:wmo:42050:1,2004-02-01T11:00:00Z,28.8425,-94.2433,2.0,261.519781,30.58435221,-99999.0,'11111222,11111222,99999999' 
TABS,ioos:station:wmo:42050:1,2004-02-01T12:00:00Z,28.8425,-94.2433,2.0,264.2928955,29.26503887,-99999.0,'11111222,11111222,99999999' 
TABS,ioos:station:wmo:42050:1,2004-02-01T12:30:00Z,28.8425,-94.2433,2.0,265.6930421,29.5634707,-99999.0,'11111222,11111222,99999999' 
TABS,ioos:station:wmo:42050:1,2004-02-01T13:00:00Z,28.8425,-94.2433,2.0,268.9972003,29.72454878,-99999.0,'11111222,11111222,99999999' 
TABS,ioos:station:wmo:42050:1,2004-02-01T13:30:00Z,28.8425,-94.2433,2.0,273.8402678,29.56637279,-99999.0,'11111222,11111222,99999999' 
TABS,ioos:station:wmo:42050:1,2004-02-01T14:00:00Z,28.8425,-94.2433,2.0,278.7770521,28.57459011,-99999.0,'11111222,11111222,99999999' 
TABS,ioos:station:wmo:42050:1,2004-02-01T15:00:00Z,28.8425,-94.2433,2.0,288.2053275,28.35953455,-99999.0,'11111222,11111222,99999999' 
TABS,ioos:station:wmo:42050:1,2004-02-01T15:30:00Z,28.8425,-94.2433,2.0,288.678504,26.8226807,-99999.0,'11111222,11111222,99999999' 
TABS,ioos:station:wmo:42050:1,2004-02-01T16:00:00Z,28.8425,-94.2433,2.0,292.0806185,25.56497995,-99999.0,'11111222,11111222,99999999' 
TABS,ioos:station:wmo:42050:1,2004-02-01T16:30:00Z,28.8425,-94.2433,2.0,286.4857853,23.61058237,-99999.0,'11111222,11111222,99999999' 
TABS,ioos:station:wmo:42050:1,2004-02-01T17:00:00Z,28.8425,-94.2433,2.0,286.9514843,22.22561585,-99999.0,'11111222,11111222,99999999' 
TABS,ioos:station:wmo:42050:1,2004-02-01T17:30:00Z,28.8425,-94.2433,2.0,287.202616,21.16686089,-99999.0,'11111222,11111222,99999999' 
TABS,ioos:station:wmo:42050:1,2004-02-01T18:00:00Z,28.8425,-94.2433,2.0,283.3341914,22.15729451,-99999.0,'11111222,11111222,99999999' 
TABS,ioos:station:wmo:42050:1,2004-02-01T18:30:00Z,28.8425,-94.2433,2.0,277.6278589,21.9239823,-99999.0,'11111222,11111222,99999999' 
TABS,ioos:station:wmo:42050:1,2004-02-01T19:00:00Z,28.8425,-94.2433,2.0,281.257821,19.26057372,-99999.0,'11111222,11111222,99999999' 
TABS,ioos:station:wmo:42050:1,2004-02-01T19:30:00Z,28.8425,-94.2433,2.0,274.4009788,23.58954217,-99999.0,'11111222,11111222,99999999' 
TABS,ioos:station:wmo:42050:1,2004-02-01T20:00:00Z,28.8425,-94.2433,2.0,274.1242306,20.30256388,-99999.0,'11111222,11111222,99999999' 
TABS,ioos:station:wmo:42050:1,2004-02-01T20:30:00Z,28.8425,-94.2433,2.0,270.6170559,21.37123768,-99999.0,'11111222,11111222,99999999' 
TABS,ioos:station:wmo:42050:1,2004-02-01T21:00:00Z,28.8425,-94.2433,2.0,271.3715974,22.56646184,-99999.0,'11111222,11111222,99999999' 
TABS,ioos:station:wmo:42050:1,2004-02-01T21:30:00Z,28.8425,-94.2433,2.0,272.2631323,23.80856359,-99999.0,'11111222,11111222,99999999' 
TABS,ioos:station:wmo:42050:1,2004-02-01T22:00:00Z,28.8425,-94.2433,2.0,272.8806423,24.08041943,-99999.0,'11111222,11111222,99999999' 
TABS,ioos:station:wmo:42050:1,2004-02-01T22:30:00Z,28.8425,-94.2433,2.0,273.6394271,23.94828595,-99999.0,'11111222,11111222,99999999' 
TABS,ioos:station:wmo:42050:1,2004-02-01T23:00:00Z,28.8425,-94.2433,2.0,270.634477,22.59138331,-99999.0,'11111222,11111222,99999999' 
TABS,ioos:station:wmo:42050:1,2004-02-01T23:30:00Z,28.8425,-94.2433,2.0,271.7240753,21.60977788,-99999.0,'11111222,11111222,99999999' 
TABS,ioos:station:wmo:42050:1,2004-02-02T00:00:00Z,28.8425,-94.2433,2.0,270.025717,22.65000221,-99999.0,'11111222,11111222,99999999' 
TABS,ioos:station:wmo:42050:1,2004-02-02T00:30:00Z,28.8425,-94.2433,2.0,271.4976679,22.1975787,-99999.0,'11111222,11111222,99999999' 
TABS,ioos:station:wmo:42050:1,2004-02-02T01:00:00Z,28.8425,-94.2433,2.0,272.1008518,21.55448213,-99999.0,'11111222,11111222,99999999' 
TABS,ioos:station:wmo:42050:1,2004-02-02T01:30:00Z,28.8425,-94.2433,2.0,271.6787356,21.16908123,-99999.0,'11111222,11111222,99999999' 
TABS,ioos:station:wmo:42050:1,2004-02-02T02:00:00Z,28.8425,-94.2433,2.0,266.8665801,21.04144957,-99999.0,'11111222,11111222,99999999' 
TABS,ioos:station:wmo:42050:1,2004-02-02T02:30:00Z,28.8425,-94.2433,2.0,270.1717932,20.06008973,-99999.0,'11111222,11111222,99999999' 
TABS,ioos:station:wmo:42050:1,2004-02-02T03:00:00Z,28.8425,-94.2433,2.0,263.6412802,20.94886154,-99999.0,'11111222,11111222,99999999' 
TABS,ioos:station:wmo:42050:1,2004-02-02T03:30:00Z,28.8425,-94.2433,2.0,254.421368,23.7940854,-99999.0,'11111222,11111222,99999999' 
TABS,ioos:station:wmo:42050:1,2004-02-02T04:00:00Z,28.8425,-94.2433,2.0,269.3526368,22.14141143,-99999.0,'11111222,11111222,99999999' 
TABS,ioos:station:wmo:42050:1,2004-02-02T04:30:00Z,28.8425,-94.2433,2.0,256.9135935,22.08348025,-99999.0,'11111222,11111222,99999999' 
TABS,ioos:station:wmo:42050:1,2004-02-02T05:00:00Z,28.8425,-94.2433,2.0,255.4905719,22.63176971,-99999.0,'11111222,11111222,99999999' 
TABS,ioos:station:wmo:42050:1,2004-02-02T05:30:00Z,28.8425,-94.2433,2.0,256.3431946,21.21990811,-99999.0,'11111222,11111222,99999999' 
TABS,ioos:station:wmo:42050:1,2004-02-02T06:00:00Z,28.8425,-94.2433,2.0,258.9517645,21.86521667,-99999.0,'11111222,11111222,99999999' 
TABS,ioos:station:wmo:42050:1,2004-02-02T06:30:00Z,28.8425,-94.2433,2.0,255.5093348,24.17913563,-99999.0,'11111222,11111222,99999999' 
TABS,ioos:station:wmo:42050:1,2004-02-02T07:00:00Z,28.8425,-94.2433,2.0,251.9576225,26.28230774,-99999.0,'11111222,11111222,99999999' 
TABS,ioos:station:wmo:42050:1,2004-02-02T07:30:00Z,28.8425,-94.2433,2.0,246.278655,27.21964181,-99999.0,'11111222,11111222,99999999' 
TABS,ioos:station:wmo:42050:1,2004-02-02T08:00:00Z,28.8425,-94.2433,2.0,241.7948953,23.44359187,-99999.0,'11111222,11111222,99999999' 
TABS,ioos:station:wmo:42050:1,2004-02-02T08:30:00Z,28.8425,-94.2433,2.0,245.0381212,28.12733368,-99999.0,'11111222,11111222,99999999' 
TABS,ioos:station:wmo:42050:1,2004-02-02T09:00:00Z,28.8425,-94.2433,2.0,244.2253204,28.51705455,-99999.0,'11111222,11111222,99999999' 
TABS,ioos:station:wmo:42050:1,2004-02-02T09:30:00Z,28.8425,-94.2433,2.0,233.1084444,26.87000186,-99999.0,'11111222,11111222,99999999' 
TABS,ioos:station:wmo:42050:1,2004-02-02T10:00:00Z,28.8425,-94.2433,2.0,238.8207601,29.68832936,-99999.0,'11111222,11111222,99999999' 
TABS,ioos:station:wmo:42050:1,2004-02-02T10:30:00Z,28.8425,-94.2433,2.0,244.3027723,29.21981862,-99999.0,'11111222,11111222,99999999' 
TABS,ioos:station:wmo:42050:1,2004-02-02T11:00:00Z,28.8425,-94.2433,2.0,254.2575759,29.41320282,-99999.0,'11111222,11111222,99999999' 
TABS,ioos:station:wmo:42050:1,2004-02-02T11:30:00Z,28.8425,-94.2433,2.0,248.2599158,27.5924863,-99999.0,'11111222,11111222,99999999' 
TABS,ioos:station:wmo:42050:1,2004-02-02T12:00:00Z,28.8425,-94.2433,2.0,248.6991578,26.12461866,-99999.0,'11111222,11111222,99999999' 
TABS,ioos:station:wmo:42050:1,2004-02-02T12:30:00Z,28.8425,-94.2433,2.0,250.0067319,30.00845881,-99999.0,'11111222,11111222,99999999' 
TABS,ioos:station:wmo:42050:1,2004-02-02T13:00:00Z,28.8425,-94.2433,2.0,253.915041,25.44611955,-99999.0,'11111222,11111222,99999999' 
TABS,ioos:station:wmo:42050:1,2004-02-02T13:30:00Z,28.8425,-94.2433,2.0,259.899376,25.54589791,-99999.0,'11111222,11111222,99999999' 
TABS,ioos:station:wmo:42050:1,2004-02-02T14:00:00Z,28.8425,-94.2433,2.0,265.7713286,28.61789126,-99999.0,'11111222,11111222,99999999' 
TABS,ioos:station:wmo:42050:1,2004-02-02T14:30:00Z,28.8425,-94.2433,2.0,280.2062253,24.32487821,-99999.0,'11111222,11111222,99999999' 
TABS,ioos:station:wmo:42050:1,2004-02-02T15:00:00Z,28.8425,-94.2433,2.0,283.6922329,27.84116736,-99999.0,'11111222,11111222,99999999' 
TABS,ioos:station:wmo:42050:1,2004-02-02T15:30:00Z,28.8425,-94.2433,2.0,286.7461323,27.14097456,-99999.0,'11111222,11111222,99999999' 
TABS,ioos:station:wmo:42050:1,2004-02-02T16:00:00Z,28.8425,-94.2433,2.0,284.3699656,21.67820103,-99999.0,'11111222,11111222,99999999' 
TABS,ioos:station:wmo:42050:1,2004-02-02T16:30:00Z,28.8425,-94.2433,2.0,265.1842589,20.25147896,-99999.0,'11111222,11111222,99999999' 
TABS,ioos:station:wmo:42050:1,2004-02-02T17:00:00Z,28.8425,-94.2433,2.0,252.8381323,18.63990612,-99999.0,'11111222,11111222,99999999' 
TABS,ioos:station:wmo:42050:1,2004-02-02T17:30:00Z,28.8425,-94.2433,2.0,251.9798519,19.20185408,-99999.0,'11111222,11111222,99999999' 
TABS,ioos:station:wmo:42050:1,2004-02-02T18:00:00Z,28.8425,-94.2433,2.0,238.9865679,21.91238234,-99999.0,'11111222,11111222,99999999' 
TABS,ioos:station:wmo:42050:1,2004-02-02T18:30:00Z,28.8425,-94.2433,2.0,244.4773868,23.83596023,-99999.0,'11111222,11111222,99999999' 
TABS,ioos:station:wmo:42050:1,2004-02-02T19:00:00Z,28.8425,-94.2433,2.0,254.3367881,21.44636566,-99999.0,'11111222,11111222,99999999' 
TABS,ioos:station:wmo:42050:1,2004-02-02T19:30:00Z,28.8425,-94.2433,2.0,252.1851796,17.52004566,-99999.0,'11111222,11111222,99999999' 
TABS,ioos:station:wmo:42050:1,2004-02-02T20:00:00Z,28.8425,-94.2433,2.0,249.5565842,19.58336284,-99999.0,'11111222,11111222,99999999' 
TABS,ioos:station:wmo:42050:1,2004-02-02T20:30:00Z,28.8425,-94.2433,2.0,232.9994594,22.86405913,-99999.0,'11111222,11111222,99999999' 
TABS,ioos:station:wmo:42050:1,2004-02-02T21:00:00Z,28.8425,-94.2433,2.0,235.9859321,21.11222632,-99999.0,'11111222,11111222,99999999' 
TABS,ioos:station:wmo:42050:1,2004-02-02T21:30:00Z,28.8425,-94.2433,2.0,235.8830615,21.60894491,-99999.0,'11111222,11111222,99999999' 
TABS,ioos:station:wmo:42050:1,2004-02-02T22:00:00Z,28.8425,-94.2433,2.0,230.8848216,19.86124367,-99999.0,'11111222,11111222,99999999' 
TABS,ioos:station:wmo:42050:1,2004-02-02T22:30:00Z,28.8425,-94.2433,2.0,223.5984273,19.37344832,-99999.0,'11111222,11111222,99999999' 
TABS,ioos:station:wmo:42050:1,2004-02-02T23:00:00Z,28.8425,-94.2433,2.0,213.6626753,17.58954519,-99999.0,'11111222,11111222,99999999' 
TABS,ioos:station:wmo:42050:1,2004-02-02T23:30:00Z,28.8425,-94.2433,2.0,221.203749,17.83700928,-99999.0,'11111222,11111222,99999999' 
TABS,ioos:station:wmo:42050:1,2004-02-03T00:00:00Z,28.8425,-94.2433,2.0,218.1175525,16.34587716,-99999.0,'11111222,11111222,99999999' 
TABS,ioos:station:wmo:42050:1,2004-02-03T00:30:00Z,28.8425,-94.2433,2.0,221.5574771,15.07442868,-99999.0,'11111222,11111222,99999999' 
TABS,ioos:station:wmo:42050:1,2004-02-03T01:00:00Z,28.8425,-94.2433,2.0,214.1320417,11.13871177,-99999.0,'11111222,11111222,99999999' 
TABS,ioos:station:wmo:42050:1,2004-02-03T01:30:00Z,28.8425,-94.2433,2.0,218.0467431,13.43483532,-99999.0,'11111222,11111222,99999999' 
TABS,ioos:station:wmo:42050:1,2004-02-03T02:00:00Z,28.8425,-94.2433,2.0,227.8343124,15.29929737,-99999.0,'11111222,11111222,99999999' 
TABS,ioos:station:wmo:42050:1,2004-02-03T02:30:00Z,28.8425,-94.2433,2.0,228.5612091,17.07424962,-99999.0,'11111222,11111222,99999999' 
TABS,ioos:station:wmo:42050:1,2004-02-03T03:00:00Z,28.8425,-94.2433,2.0,233.5012705,15.11431772,-99999.0,'11111222,11111222,99999999' 
TABS,ioos:station:wmo:42050:1,2004-02-03T03:30:00Z,28.8425,-94.2433,2.0,239.990734,13.99622806,-99999.0,'11111222,11111222,99999999' 
TABS,ioos:station:wmo:42050:1,2004-02-03T04:00:00Z,28.8425,-94.2433,2.0,241.9987855,10.3517728,-99999.0,'11111222,11111222,99999999' 
TABS,ioos:station:wmo:42050:1,2004-02-03T04:30:00Z,28.8425,-94.2433,2.0,226.5062734,12.64036787,-99999.0,'11111222,11111222,99999999' 
TABS,ioos:station:wmo:42050:1,2004-02-03T05:00:00Z,28.8425,-94.2433,2.0,230.1129918,13.56680139,-99999.0,'11111222,11111222,99999999' 
TABS,ioos:station:wmo:42050:1,2004-02-03T05:30:00Z,28.8425,-94.2433,2.0,223.3272939,15.50638578,-99999.0,'11111222,11111222,99999999' 
TABS,ioos:station:wmo:42050:1,2004-02-03T06:00:00Z,28.8425,-94.2433,2.0,226.0662354,15.95509323,-99999.0,'11111222,11111222,99999999' 
TABS,ioos:station:wmo:42050:1,2004-02-03T06:30:00Z,28.8425,-94.2433,2.0,230.543235,17.86019597,-99999.0,'11111222,11111222,99999999' 
TABS,ioos:station:wmo:42050:1,2004-02-03T07:00:00Z,28.8425,-94.2433,2.0,232.4349971,17.81330963,-99999.0,'11111222,11111222,99999999' 
TABS,ioos:station:wmo:42050:1,2004-02-03T07:30:00Z,28.8425,-94.2433,2.0,211.1784209,16.45712004,-99999.0,'11111222,11111222,99999999' 
TABS,ioos:station:wmo:42050:1,2004-02-03T08:00:00Z,28.8425,-94.2433,2.0,231.6560689,20.37473926,-99999.0,'11111222,11111222,99999999' 
TABS,ioos:station:wmo:42050:1,2004-02-03T08:30:00Z,28.8425,-94.2433,2.0,214.0916114,18.98230755,-99999.0,'11111222,11111222,99999999' 
TABS,ioos:station:wmo:42050:1,2004-02-03T09:00:00Z,28.8425,-94.2433,2.0,230.7440396,22.6776564,-99999.0,'11111222,11111222,99999999' 
TABS,ioos:station:wmo:42050:1,2004-02-03T09:30:00Z,28.8425,-94.2433,2.0,222.5162994,22.84686412,-99999.0,'11111222,11111222,99999999' 
TABS,ioos:station:wmo:42050:1,2004-02-03T10:00:00Z,28.8425,-94.2433,2.0,232.3702108,26.40231997,-99999.0,'11111222,11111222,99999999' 
TABS,ioos:station:wmo:42050:1,2004-02-03T10:30:00Z,28.8425,-94.2433,2.0,224.0505154,22.62345022,-99999.0,'11111222,11111222,99999999' 
TABS,ioos:station:wmo:42050:1,2004-02-03T11:00:00Z,28.8425,-94.2433,2.0,238.3594629,24.1143816,-99999.0,'11111222,11111222,99999999' 
TABS,ioos:station:wmo:42050:1,2004-02-03T11:30:00Z,28.8425,-94.2433,2.0,237.439728,22.78042142,-99999.0,'11111222,11111222,99999999' 
TABS,ioos:station:wmo:42050:1,2004-02-03T12:00:00Z,28.8425,-94.2433,2.0,245.8283502,25.91180619,-99999.0,'11111222,11111222,99999999' 
TABS,ioos:station:wmo:42050:1,2004-02-03T12:30:00Z,28.8425,-94.2433,2.0,247.1156204,21.52407489,-99999.0,'11111222,11111222,99999999' 
TABS,ioos:station:wmo:42050:1,2004-02-03T13:00:00Z,28.8425,-94.2433,2.0,255.796343,24.1275465,-99999.0,'11111222,11111222,99999999' 
TABS,ioos:station:wmo:42050:1,2004-02-03T13:30:00Z,28.8425,-94.2433,2.0,258.8874264,23.29677445,-99999.0,'11111222,11111222,99999999' 
TABS,ioos:station:wmo:42050:1,2004-02-03T14:00:00Z,28.8425,-94.2433,2.0,264.1435792,23.52275494,-99999.0,'11111222,11111222,99999999' 
TABS,ioos:station:wmo:42050:1,2004-02-03T14:30:00Z,28.8425,-94.2433,2.0,276.5446898,23.25150533,-99999.0,'11111222,11111222,99999999' 
TABS,ioos:station:wmo:42050:1,2004-02-03T15:00:00Z,28.8425,-94.2433,2.0,277.2641215,23.56914933,-99999.0,'11111222,11111222,99999999' 
TABS,ioos:station:wmo:42050:1,2004-02-03T15:30:00Z,28.8425,-94.2433,2.0,279.9552742,25.62581706,-99999.0,'11111222,11111222,99999999' 
TABS,ioos:station:wmo:42050:1,2004-02-03T16:00:00Z,28.8425,-94.2433,2.0,291.4291576,25.12696758,-99999.0,'11111222,11111222,99999999' 
TABS,ioos:station:wmo:42050:1,2004-02-03T16:30:00Z,28.8425,-94.2433,2.0,289.7530236,23.78978142,-99999.0,'11111222,11111222,99999999' 
TABS,ioos:station:wmo:42050:1,2004-02-03T17:00:00Z,28.8425,-94.2433,2.0,285.6452642,25.14144984,-99999.0,'11111222,11111222,99999999' 
TABS,ioos:station:wmo:42050:1,2004-02-03T17:30:00Z,28.8425,-94.2433,2.0,294.0593453,22.91030336,-99999.0,'11111222,11111222,99999999' 
TABS,ioos:station:wmo:42050:1,2004-02-03T18:00:00Z,28.8425,-94.2433,2.0,293.0441206,25.26607607,-99999.0,'11111222,11111222,99999999' 
TABS,ioos:station:wmo:42050:1,2004-02-03T18:30:00Z,28.8425,-94.2433,2.0,293.7087153,22.43327885,-99999.0,'11111222,11111222,99999999' 
TABS,ioos:station:wmo:42050:1,2004-02-03T19:00:00Z,28.8425,-94.2433,2.0,300.5933246,21.20109903,-99999.0,'11111222,11111222,99999999' 
TABS,ioos:station:wmo:42050:1,2004-02-03T19:30:00Z,28.8425,-94.2433,2.0,299.5951228,19.88407654,-99999.0,'11111222,11111222,99999999' 
TABS,ioos:station:wmo:42050:1,2004-02-03T20:00:00Z,28.8425,-94.2433,2.0,281.6494234,18.22539163,-99999.0,'11111222,11111222,99999999' 
TABS,ioos:station:wmo:42050:1,2004-02-03T20:30:00Z,28.8425,-94.2433,2.0,277.2996673,17.94542839,-99999.0,'11111222,11111222,99999999' 
TABS,ioos:station:wmo:42050:1,2004-02-03T21:00:00Z,28.8425,-94.2433,2.0,264.993999,17.30600185,-99999.0,'11111222,11111222,99999999' 
TABS,ioos:station:wmo:42050:1,2004-02-03T21:30:00Z,28.8425,-94.2433,2.0,278.2641493,16.97626578,-99999.0,'11111222,11111222,99999999' 
TABS,ioos:station:wmo:42050:1,2004-02-03T22:00:00Z,28.8425,-94.2433,2.0,249.4095017,19.67696115,-99999.0,'11111222,11111222,99999999' 
TABS,ioos:station:wmo:42050:1,2004-02-03T22:30:00Z,28.8425,-94.2433,2.0,250.7337725,17.88139816,-99999.0,'11111222,11111222,99999999' 
TABS,ioos:station:wmo:42050:1,2004-02-03T23:00:00Z,28.8425,-94.2433,2.0,254.9749063,17.0115549,-99999.0,'11111222,11111222,99999999' 
TABS,ioos:station:wmo:42050:1,2004-02-03T23:30:00Z,28.8425,-94.2433,2.0,253.6140953,16.09363849,-99999.0,'11111222,11111222,99999999' 
TABS,ioos:station:wmo:42050:1,2004-02-04T00:00:00Z,28.8425,-94.2433,2.0,263.6340901,17.49787701,-99999.0,'11111222,11111222,99999999' 
TABS,ioos:station:wmo:42050:1,2004-02-04T00:30:00Z,28.8425,-94.2433,2.0,251.8229391,18.24020285,-99999.0,'11111222,11111222,99999999' 
TABS,ioos:station:wmo:42050:1,2004-02-04T01:00:00Z,28.8425,-94.2433,2.0,252.6714433,17.19018615,-99999.0,'11111222,11111222,99999999' 
TABS,ioos:station:wmo:42050:1,2004-02-04T01:30:00Z,28.8425,-94.2433,2.0,268.6631256,18.86513186,-99999.0,'11111222,11111222,99999999' 
TABS,ioos:station:wmo:42050:1,2004-02-04T02:00:00Z,28.8425,-94.2433,2.0,269.6040233,18.83044875,-99999.0,'11111222,11111222,99999999' 
TABS,ioos:station:wmo:42050:1,2004-02-04T02:30:00Z,28.8425,-94.2433,2.0,261.8559389,17.93081426,-99999.0,'11111222,11111222,99999999' 
TABS,ioos:station:wmo:42050:1,2004-02-04T03:00:00Z,28.8425,-94.2433,2.0,264.607215,17.55770201,-99999.0,'11111222,11111222,99999999' 
TABS,ioos:station:wmo:42050:1,2004-02-04T03:30:00Z,28.8425,-94.2433,2.0,282.1604472,20.22376078,-99999.0,'11111222,11111222,99999999' 
TABS,ioos:station:wmo:42050:1,2004-02-04T04:00:00Z,28.8425,-94.2433,2.0,270.8947193,20.50249741,-99999.0,'11111222,11111222,99999999' 
TABS,ioos:station:wmo:42050:1,2004-02-04T04:30:00Z,28.8425,-94.2433,2.0,274.3535233,18.31282884,-99999.0,'11111222,11111222,99999999' 
TABS,ioos:station:wmo:42050:1,2004-02-04T05:00:00Z,28.8425,-94.2433,2.0,277.881304,23.41111275,-99999.0,'11111222,11111222,99999999' 
TABS,ioos:station:wmo:42050:1,2004-02-04T05:30:00Z,28.8425,-94.2433,2.0,269.2878685,22.54173906,-99999.0,'11111222,11111222,99999999' 
TABS,ioos:station:wmo:42050:1,2004-02-04T06:00:00Z,28.8425,-94.2433,2.0,278.0650796,19.81597335,-99999.0,'11111222,11111222,99999999' 
TABS,ioos:station:wmo:42050:1,2004-02-04T06:30:00Z,28.8425,-94.2433,2.0,269.73622,19.58020684,-99999.0,'11111222,11111222,99999999' 
TABS,ioos:station:wmo:42050:1,2004-02-04T07:00:00Z,28.8425,-94.2433,2.0,264.0029006,21.91994754,-99999.0,'11111222,11111222,99999999' 
TABS,ioos:station:wmo:42050:1,2004-02-04T07:30:00Z,28.8425,-94.2433,2.0,261.7769472,20.13701318,-99999.0,'11111222,11111222,99999999' 
TABS,ioos:station:wmo:42050:1,2004-02-04T08:00:00Z,28.8425,-94.2433,2.0,256.8344505,25.6850657,-99999.0,'11111222,11111222,99999999' 
TABS,ioos:station:wmo:42050:1,2004-02-04T08:30:00Z,28.8425,-94.2433,2.0,241.3599638,28.16608599,-99999.0,'11111222,11111222,99999999' 
TABS,ioos:station:wmo:42050:1,2004-02-04T09:00:00Z,28.8425,-94.2433,2.0,253.5009773,28.45144636,-99999.0,'11111222,11111222,99999999' 
TABS,ioos:station:wmo:42050:1,2004-02-04T09:30:00Z,28.8425,-94.2433,2.0,246.7427958,30.99883869,-99999.0,'11111222,11111222,99999999' 
TABS,ioos:station:wmo:42050:1,2004-02-04T10:00:00Z,28.8425,-94.2433,2.0,241.7429713,32.57134477,-99999.0,'11111222,11111222,99999999' 
TABS,ioos:station:wmo:42050:1,2004-02-04T10:30:00Z,28.8425,-94.2433,2.0,247.6232184,33.4918408,-99999.0,'11111222,11111222,99999999' 
TABS,ioos:station:wmo:42050:1,2004-02-04T11:00:00Z,28.8425,-94.2433,2.0,244.8632826,33.90038495,-99999.0,'11111222,11111222,99999999' 
TABS,ioos:station:wmo:42050:1,2004-02-04T11:30:00Z,28.8425,-94.2433,2.0,242.264853,34.83178146,-99999.0,'11111222,11111222,99999999' 
TABS,ioos:station:wmo:42050:1,2004-02-04T12:00:00Z,28.8425,-94.2433,2.0,238.758803,34.39787348,-99999.0,'11111222,11111222,99999999' 
TABS,ioos:station:wmo:42050:1,2004-02-04T12:30:00Z,28.8425,-94.2433,2.0,246.6722888,33.89027589,-99999.0,'11111222,11111222,99999999' 
TABS,ioos:station:wmo:42050:1,2004-02-04T13:00:00Z,28.8425,-94.2433,2.0,255.8825629,30.95485261,-99999.0,'11111222,11111222,99999999' 
TABS,ioos:station:wmo:42050:1,2004-02-04T13:30:00Z,28.8425,-94.2433,2.0,261.5827592,31.08480336,-99999.0,'11111222,11111222,99999999' 
TABS,ioos:station:wmo:42050:1,2004-02-04T14:00:00Z,28.8425,-94.2433,2.0,254.4248461,28.45483614,-99999.0,'11111222,11111222,99999999' 
TABS,ioos:station:wmo:42050:1,2004-02-04T14:30:00Z,28.8425,-94.2433,2.0,265.4789049,29.18078306,-99999.0,'11111222,11111222,99999999' 
TABS,ioos:station:wmo:42050:1,2004-02-04T15:00:00Z,28.8425,-94.2433,2.0,278.1782805,27.13593927,-99999.0,'11111222,11111222,99999999' 
TABS,ioos:station:wmo:42050:1,2004-02-04T15:30:00Z,28.8425,-94.2433,2.0,280.0083773,27.96553593,-99999.0,'11111222,11111222,99999999' 
TABS,ioos:station:wmo:42050:1,2004-02-04T16:00:00Z,28.8425,-94.2433,2.0,281.5034371,30.83943741,-99999.0,'11111222,11111222,99999999' 
TABS,ioos:station:wmo:42050:1,2004-02-04T16:30:00Z,28.8425,-94.2433,2.0,290.504768,29.86189043,-99999.0,'11111222,11111222,99999999' 
TABS,ioos:station:wmo:42050:1,2004-02-04T17:00:00Z,28.8425,-94.2433,2.0,282.3592146,29.24777769,-99999.0,'11111222,11111222,99999999' 